Total_Precipitation_Accumulation
0.81 0.75 0.64 0.66 0.61 0.64 0.72 0.77 0.80 0.83 0.92 0.88 0.85 0.88 0.90 0.86 0.78 0.77 0.94 1.21 1.68 2.03 1.96 1.78 1.59 1.60 1.61 1.47 1.48 1.64 1.81 1.90 1.84 1.84 1.95 2.05 1.94 1.79 1.70 1.60 1.60 1.54 1.44
0.74 0.77 0.73 0.74 0.74 0.72 0.72 0.73 0.73 0.86 0.93 0.96 0.94 0.92 0.91 0.79 0.78 0.87 1.03 1.11 1.17 1.52 2.01 2.09 2.03 1.92 1.82 1.60 1.51 1.64 1.74 1.77 1.71 1.78 1.84 1.87 1.77 1.57 1.46 1.56 1.73 1.52 1.30
0.70 0.75 0.78 0.80 0.82 0.81 0.81 0.84 0.85 0.94 0.94 1.02 1.05 0.93 0.87 0.81 0.79 0.87 0.94 1.02 0.86 0.90 1.38 1.98 2.23 2.09 2.03 1.89 1.69 1.68 1.72 1.78 1.66 1.78 1.79 1.79 1.62 1.51 1.39 1.54 1.70 1.58 1.34
0.73 0.81 0.84 0.88 0.94 0.85 0.82 0.91 0.98 1.06 1.06 1.13 1.17 1.00 0.83 0.90 0.86 0.86 0.99 1.01 0.97 0.90 1.08 1.32 1.59 1.75 2.04 2.21 2.03 1.92 1.80 1.71 1.57 1.67 1.72 1.71 1.57 1.49 1.39 1.53 1.56 1.56 1.47
0.91 0.98 1.03 1.06 1.08 1.09 1.02 0.93 0.97 1.08 1.20 1.24 1.13 1.04 0.93 0.92 0.94 0.93 1.10 1.11 1.05 1.05 1.15 1.08 1.10 1.24 1.53 1.96 2.11 2.11 1.90 1.65 1.49 1.53 1.55 1.45 1.49 1.45 1.31 1.38 1.44 1.45 1.46
1.19 1.29 1.27 1.22 1.29 1.39 1.43 1.23 1.28 1.24 1.21 1.31 1.17 1.09 1.07 1.02 1.02 1.07 1.12 1.18 1.26 1.17 1.22 1.14 1.04 0.87 1.07 1.42 1.74 2.04 2.09 1.91 1.65 1.58 1.62 1.40 1.33 1.39 1.29 1.23 1.30 1.37 1.37
1.52 1.68 1.66 1.64 1.65 1.65 1.62 1.57 1.71 1.65 1.40 1.32 1.51 1.49 1.35 1.19 1.14 1.11 1.12 1.27 1.39 1.39 1.44 1.37 1.24 1.06 0.94 0.95 1.13 1.67 2.02 2.16 2.08 1.85 1.87 1.71 1.39 1.29 1.28 1.23 1.24 1.32 1.36
1.74 1.78 1.99 2.10 2.07 2.19 2.17 1.99 2.14 2.15 1.79 1.55 1.81 2.11 1.84 1.63 1.23 1.11 1.17 1.21 1.31 1.46 1.55 1.43 1.28 1.17 1.12 1.06 0.90 1.18 1.47 1.94 2.21 2.04 2.11 2.12 1.63 1.34 1.21 1.20 1.24 1.29 1.40
1.89 1.91 2.03 2.21 2.22 2.30 2.41 2.48 2.42 2.53 2.35 1.95 1.81 2.10 2.02 1.88 1.68 1.29 1.20 1.28 1.41 1.50 1.57 1.58 1.43 1.21 1.18 1.21 1.01 0.93 1.07 1.26 1.73 1.99 2.14 2.35 1.96 1.50 1.22 1.18 1.19 1.19 1.32
2.08 2.16 2.18 2.30 2.32 2.34 2.45 2.55 2.52 2.66 2.74 2.35 2.05 1.84 1.67 1.68 1.81 1.59 1.35 1.30 1.46 1.50 1.53 1.57 1.62 1.46 1.29 1.30 1.17 0.96 0.95 1.00 1.25 1.76 2.07 2.35 2.25 1.78 1.39 1.30 1.32 1.24 1.29
2.19 2.23 2.30 2.46 2.46 2.44 2.42 2.63 2.68 2.78 2.71 2.62 2.47 2.31 2.14 1.90 1.55 1.64 1.68 1.53 1.44 1.35 1.42 1.56 1.72 1.67 1.51 1.44 1.50 1.15 0.90 0.88 0.98 1.50 1.90 2.36 2.47 2.14 1.85 1.70 1.56 1.45 1.30
2.23 2.12 2.04 2.18 2.25 2.29 2.28 2.47 2.65 2.79 2.77 2.79 2.71 2.43 2.37 2.24 1.87 1.81 1.69 1.60 1.61 1.42 1.36 1.46 1.52 1.53 1.55 1.50 1.40 1.35 1.05 0.90 0.92 1.22 1.60 1.97 2.43 2.39 2.28 2.19 1.97 1.85 1.67
2.06 2.10 1.98 1.97 2.00 1.95 1.99 2.12 2.20 2.28 2.42 2.58 2.49 2.28 2.24 2.08 2.05 2.06 1.97 1.74 1.58 1.36 1.39 1.40 1.38 1.39 1.38 1.42 1.47 1.53 1.16 0.95 0.93 1.04 1.33 1.57 1.94 2.25 2.42 2.35 2.23 2.21 2.12
1.74 1.83 1.83 1.77 1.81 1.85 1.86 1.95 1.96 1.98 2.02 2.10 2.09 2.18 2.24 2.10 2.02 1.96 2.00 2.15 1.92 1.68 1.52 1.39 1.39 1.42 1.37 1.34 1.50 1.54 1.22 1.07 0.94 0.91 1.03 1.26 1.55 1.92 2.16 2.20 2.25 2.35 2.33
1.31 1.37 1.46 1.54 1.63 1.68 1.73 1.88 1.95 1.94 1.91 1.90 1.99 2.06 2.03 2.02 2.00 1.89 1.87 2.02 2.12 1.96 1.81 1.63 1.50 1.43 1.45 1.37 1.46 1.30 1.25 1.19 1.03 0.98 1.00 0.96 1.10 1.42 1.62 1.80 1.98 1.99 2.09
0.99 1.04 1.14 1.31 1.53 1.65 1.69 1.76 1.81 1.89 1.93 1.90 1.99 2.10 2.13 2.13 2.14 2.07 1.94 1.93 1.89 1.92 1.84 1.62 1.44 1.36 1.49 1.36 1.47 1.29 1.24 1.39 1.20 1.12 1.04 0.91 0.89 0.95 1.08 1.26 1.46 1.59 1.64
0.85 0.96 1.00 1.14 1.30 1.47 1.66 1.80 1.81 1.81 1.85 1.83 1.79 1.89 2.02 2.11 2.23 2.24 2.23 2.11 1.97 1.92 1.84 1.68 1.48 1.35 1.49 1.55 1.48 1.43 1.31 1.24 1.24 1.22 1.09 1.03 0.95 0.82 0.89 0.98 1.15 1.31 1.40
0.68 0.76 0.90 1.09 1.21 1.29 1.33 1.42 1.50 1.54 1.58 1.64 1.63 1.60 1.68 1.78 1.94 2.09 2.18 2.13 2.11 2.01 1.92 1.89 1.70 1.45 1.36 1.46 1.52 1.60 1.51 1.29 1.25 1.34 1.27 1.16 1.07 0.90 0.81 0.84 0.95 1.02 1.06
0.67 0.70 0.83 0.98 1.04 1.09 1.13 1.15 1.25 1.34 1.36 1.35 1.40 1.37 1.39 1.47 1.62 1.77 1.86 1.94 2.05 2.09 2.09 1.99 1.89 1.71 1.47 1.49 1.58 1.61 1.64 1.69 1.45 1.35 1.36 1.31 1.21 1.11 1.02 0.93 0.90 0.92 0.89
0.70 0.74 0.88 0.96 0.98 0.94 1.03 1.06 1.12 1.16 1.12 1.07 1.11 1.11 1.16 1.21 1.29 1.43 1.58 1.80 1.98 2.09 2.15 2.14 2.03 1.81 1.65 1.63 1.62 1.64 1.73 1.79 1.75 1.52 1.42 1.34 1.38 1.33 1.18 1.08 1.00 0.97 0.97
0.73 0.76 0.81 0.90 0.94 0.91 0.96 1.02 1.02 0.96 0.96 0.95 0.90 0.81 0.83 0.90 0.93 1.02 1.07 1.36 1.61 1.84 1.96 2.03 2.01 1.86 1.65 1.56 1.44 1.47 1.62 1.78 1.86 1.81 1.72 1.45 1.38 1.34 1.29 1.23 1.14 1.06 1.01
0.61 0.64 0.69 0.84 0.94 0.84 0.95 0.96 0.88 0.81 0.78 0.83 0.80 0.72 0.70 0.74 0.66 0.63 0.68 0.90 1.20 1.40 1.58 1.76 1.82 1.70 1.56 1.49 1.53 1.53 1.54 1.60 1.63 1.56 1.56 1.57 1.50 1.41 1.34 1.28 1.27 1.24 1.17
0.54 0.59 0.62 0.76 0.85 0.93 0.87 0.73 0.77 0.76 0.77 0.80 0.81 0.84 0.76 0.71 0.79 0.71 0.65 0.72 0.80 0.92 1.08 1.35 1.58 1.56 1.65 1.58 1.49 1.44 1.46 1.49 1.50 1.55 1.56 1.56 1.47 1.38 1.28 1.24 1.36 1.29 1.30
0.51 0.55 0.59 0.61 0.69 0.83 0.77 0.62 0.67 0.66 0.77 0.84 0.87 0.95 0.96 0.89 0.88 0.95 0.89 0.90 0.87 0.80 0.87 0.80 1.01 1.39 1.53 1.59 1.54 1.57 1.66 1.59 1.47 1.50 1.52 1.55 1.48 1.36 1.22 1.15 1.24 1.15 1.10
0.54 0.55 0.58 0.60 0.66 0.70 0.68 0.61 0.64 0.69 0.83 0.84 0.80 0.91 0.96 0.90 0.95 1.01 1.12 1.19 1.11 0.96 1.07 1.08 0.99 1.10 1.24 1.30 1.41 1.51 1.58 1.51 1.47 1.39 1.28 1.26 1.22 1.25 1.30 1.21 1.17 1.20 1.10
0.52 0.54 0.52 0.51 0.55 0.56 0.62 0.54 0.65 0.76 0.81 0.81 0.82 0.88 1.02 0.95 0.93 0.90 0.99 1.14 1.13 1.00 0.87 0.91 0.88 0.78 0.72 0.83 1.02 1.20 1.48 1.60 1.54 1.45 1.25 1.18 1.21 1.19 1.23 1.16 1.06 1.09 1.06